Regional Weather Roundup
Issued by NWS Newport/Morehead, NC

Current Version | Previous Version | Graphics & Text | Print | Product List | Glossary Off
Versions: 1 2 3 4 5 6 7 8 9 10 11 12 13 14 15 16 17 18 19 20 21 22 23 24 25 26 27 28 29 30 31 32 33 34 35 36 37 38 39 40 41 42 43 44 45 46 47 48 49 50

000
ASUS42 KMHX 070725
RWRMHX
WEATHER ROUNDUP FOR EASTERN NORTH CAROLINA
NATIONAL WEATHER SERVICE NEWPORT/MOREHEAD CITY NC
300 AM EDT TUE JUL 07 2015

NOTE: "FAIR" INDICATES FEW OR NO CLOUDS BELOW 12,000 FEET
WITH NO SIGNIFICANT WEATHER AND/OR OBSTRUCTIONS TO VISIBILITY

NCZ015>017-031-032-045>047-102-103-070800-
NORTH COAST

CITY           SKY/WX    TMP DP  RH WIND       PRES   REMARKS
EDENTON        CLEAR     75  72  88 SW9       30.09S
ELIZABETH CITY CLEAR     77  73  87 S9        30.09R
KITTY HAWK     SUNNY     78  73  85 SW7       30.09S
MANTEO         CLEAR     77  74  90 SW9       30.10S

$$

NCZ045>047-081-094-103-104-070800-
CENTRAL COAST

CITY           SKY/WX    TMP DP  RH WIND       PRES   REMARKS
FRISCO         CLEAR     77  75  93 SW9       30.11R
SWANQUARTER      N/A     79 N/A N/A SW14      30.06S

$$

NCZ095-097-098-100-101-070800-
SOUTHERN COAST

CITY           SKY/WX    TMP DP  RH WIND       PRES   REMARKS
BEAUFORT       PTCLDY    79  76  90 SW13      30.11R
CEDAR ISLAND     N/A     77 N/A N/A SW6       30.15S
JACKSONVILLE   PTCLDY    75  73  93 S5        30.10R
PINEY ISLAND   SUNNY    N/A N/A N/A SW6       30.10S
WILMINGTON     CLEAR     76  72  87 SW3       30.10S


$$

NCZ011>013-027>030-043-044-078>080-089-090>093-098-070800-
COASTAL PLAIN

CITY           SKY/WX    TMP DP  RH WIND       PRES   REMARKS
AHOSKIE        CLEAR     73  70  91 S3        30.08S
CLINTON        CLEAR     72  72 100 CALM      30.10S
ELIZABETHTOWN  CLEAR     73  73  97 CALM      30.10R
GOLDSBORO      CLEAR     74  71  92 CALM      30.08R
GREENVILLE     CLEAR     73  72  94 S6        30.11S
HAVELOCK       CLEAR     76  72  87 CALM      30.12R
KENANSVILLE    CLEAR     71  69  95 CALM      30.11S
KINSTON        CLEAR     73  70  93 S5        30.11R
NEW BERN       CLEAR     76  74  93 S5        30.11R
RICHLANDS      CLEAR     72  66  83 CALM      30.10F
ROCKY MOUNT    CLEAR     73  70  90 CALM      30.09S
WASHINGTON     CLEAR     74  72  92 S3        30.11R
WHITEVILLE     CLEAR     73  71  92 CALM      30.09S

$$

AMZ130-135-150-152-154-156-158-170-250-252-270-ANZ085-086-088-633-658-670-070800-
MARINE OBSERVATIONS

STATION/POSITION TIME  TEMP    WIND        PRES    WAVE   SWELL
                       AIR SEA DIR/SP/G            HT/PER HT/PER
                 (UTC) (F)     (DEG/KT/KT) (MB)    (FT/S) (FT/S)
CHESAPEAKE LIGHT 0700   78     200/ 13/ 14 1018.6
64 E VA BEACH    0650   78 77  200/ 10/ 12 1018.6    3/ 8   2/ 8
DUCK             0700   79 71  220/ 14/ 17   N/A
2 E DUCK         0611      75                N/A     2/ 9   2/13
OREGON INLET     0700   80 82  210/ 12/ 14 1019.0
13E OREGON INLT  0700      77                N/A     3/13   2/13
HATTERAS CG      0700   79 81  200/  5/  8 1019.0
DIAMOND BUOY     0650   81 82  230/ 16/ 19 1019.3    3/ 9   2/ 9
CAPE LOOKOUT     0700   79     210/  7/  9 1019.2
BEAUFORT LAB     0700   79 82  210/  9/ 12 1018.8
30 SE NEW RVR IN NOT AVBL
27 SE WRIGHTSVLE 0700      80  230/ 10/ 12   N/A
5 SE WRIGHTSVLE  NOT AVBL
225 S CAPE HAT   0650   82 80  210/ 10/ 10 1021.5    4/ 9   3/ 9
41 SE CHARLESTON 0650   81 83  220/ 12/ 14 1018.8    3/ 8   2/ 8

$$


USA.gov is the U.S. government's official web portal to all federal, state and local government web resources and services.